#timestamp,LO_Frequency,Hit,StdDev 
1579392815.6,286046994.1,P
1579392835.4,286046995.8,P
1579392855.3,286046997.6,P
1579392875.1,286046997.3,N
1579392895.9,286046995.4,Y
1579392915.7,286046999.6,P
1579392935.5,286046997.8,N
1579392955.4,286046995.3,P
1579392975.2,286046996.7,N
1579392995.1,286046998.6,N
1579392996.0,286046998.6,N
1579393015.8,286047000.6,N
1579393035.6,286046998.9,N
1579393055.5,286046999.6,N
1579393075.3,286046999.0,N
1579393095.1,286047001.2,N
1579393115.9,286046998.2,N
1579393135.7,286046999.4,N
1579393155.6,286046996.7,N
1579393175.4,286046998.0,N
1579393195.2,286046997.3,N
1579393215.1,286046994.9,Y
1579393216.0,286046994.9,P
1579393235.8,286046996.5,N
1579393255.6,286046995.3,P
1579393275.5,286046996.1,N
1579393295.3,286046996.5,N
1579393315.2,286046999.1,N
1579393335.9,286046999.2,N
1579393355.7,286046999.5,N
1579393375.6,286046996.8,N
1579393395.4,286046997.8,N
1579393415.3,286046997.2,N
1579393435.1,286046996.5,N
1579393436.0,286046996.5,N
1579393455.8,286046996.9,N
1579393475.7,286046997.1,N
1579393495.5,286046995.1,Y
1579393515.4,286046999.6,P
1579393535.2,286046996.7,N
1579393555.0,286046997.8,N
1579393555.9,286046997.8,N
1579393575.8,286046995.2,Y
1579393595.6,286046999.4,P
1579393615.4,286046997.4,P
1579393635.3,286046996.7,P
1579393655.1,286046997.2,N
1579393675.9,286046997.0,Y
1579393695.7,286046998.1,P
1579393715.5,286046998.2,P
1579393735.4,286047001.1,P
1579393755.2,286046998.2,N
1579393775.0,286047000.6,N
1579393775.9,286047000.6,N
1579393795.8,286046999.8,N
1579393815.6,286047001.5,N
1579393835.5,286047001.8,N
1579393855.3,286047001.5,N
1579393875.1,286047001.5,N
1579393895.9,286046999.7,N
1579393915.7,286047001.3,N
1579393935.5,286047001.3,N
1579393955.4,286047001.3,N
1579393975.2,286047003.7,N
1579393995.1,286047006.0,Y
1579393996.0,286047006.0,P
1579394015.8,286047007.2,N
1579394035.6,286047007.5,N
1579394055.5,286047005.4,N
1579394075.3,286047005.7,N
1579394095.1,286047005.8,N
1579394115.9,286047005.4,N
1579394135.7,286047003.4,N
1579394155.6,286047005.5,N
1579394175.4,286047005.2,N
1579394195.2,286047007.6,Y
1579394215.1,286047000.3,P
1579394216.0,286047000.3,N
1579394235.8,286047000.3,N
1579394255.7,286047000.3,N
1579394275.5,286046999.8,N
1579394295.3,286047004.2,N
1579394315.2,286047004.1,N
1579394335.9,286047001.3,N
1579394355.7,286047003.3,N
1579394375.6,286047005.9,Y
1579394395.4,286047001.1,P
1579394415.3,286047000.5,N
1579394435.1,286047002.8,P
1579394436.0,286047002.8,Y
1579394455.8,286046998.1,P
1579394475.7,286047000.7,N
1579394495.5,286047000.8,N
1579394515.3,286047000.6,N
1579394535.2,286047000.4,N
1579394555.0,286047000.7,N
1579394555.9,286047000.7,N
1579394575.8,286047002.6,N
1579394595.6,286047001.8,N
1579394615.4,286047002.0,N
1579394635.3,286047001.8,N
1579394655.1,286047004.2,Y
1579394675.8,286047001.8,P
1579394695.7,286047001.5,P
1579394715.5,286047004.1,P
1579394735.4,286047003.6,N
1579394755.2,286047005.7,Y
1579394775.0,286047003.6,P
1579394775.9,286047003.6,P
1579394795.8,286047003.1,P
1579394815.6,286047004.5,Y
1579394835.5,286047003.7,P
1579394855.3,286047003.4,P
1579394875.1,286047003.0,P
1579394895.9,286047003.4,Y
1579394915.7,286047002.8,P
1579394935.5,286047002.3,P
1579394955.4,286047002.4,P
1579394975.2,286047001.7,Y
1579394995.1,286047000.8,P
1579394996.0,286047000.8,N
1579395015.8,286047000.9,N
1579395035.6,286046999.8,N
1579395055.5,286046999.7,N
1579395075.3,286047002.4,N
1579395095.2,286047000.1,N
1579395115.9,286047000.1,N
1579395135.7,286047002.0,N
1579395155.6,286047002.0,N
1579395175.4,286047002.3,N
1579395195.3,286047001.5,N
1579395215.1,286047003.9,Y
1579395216.0,286047003.9,P
1579395235.8,286047004.4,P
1579395255.7,286047003.3,N
1579395275.5,286047003.0,N
1579395295.4,286047006.0,Y
1579395315.2,286047001.6,P
1579395335.0,286047001.4,N
1579395335.9,286047001.4,N
1579395355.8,286047003.2,Y
1579395375.6,286047002.5,P
1579395395.5,286047003.8,P
1579395415.3,286047004.1,P
1579395435.1,286047003.8,Y
1579395455.9,286046999.9,P
1579395475.7,286047000.0,N
1579395495.5,286047002.6,N
1579395515.4,286047001.7,N
1579395535.2,286047001.4,N
1579395555